• în Republica Moldova
  • Lista ţărilor
  • Pe 7 zile
  • Temperatura apei
  • Hartă satelitară
  • Meteo pe hartă
  • Widget-uri
  • user-avatar
    Intrare

    Meteo pe oră la Yulara

    Astăzi, 20 Septembrie, Joi

    Timp Temperatura Precipitaţii Vânt Presiune Umiditate
    00:00 +13°C° 0 mm 5 m/s 722 mmHg 27%
    01:00 +12°C° 0 mm 5 m/s 721 mmHg 30%
    02:00 +12°C° 0 mm 5 m/s 721 mmHg 32%
    03:00 +10°C° 0 mm 5 m/s 721 mmHg 34%
    04:00 +10°C° 0 mm 5 m/s 722 mmHg 37%
    05:00 +9°C° 0 mm 5 m/s 722 mmHg 41%
    06:00 +9°C° 0 mm 5 m/s 722 mmHg 45%
    07:00 +11°C° 0 mm 6 m/s 722 mmHg 40%
    08:00 +14°C° 0 mm 7 m/s 723 mmHg 36%
    09:00 +16°C° 0 mm 8 m/s 723 mmHg 31%
    10:00 +18°C° 0 mm 8 m/s 723 mmHg 29%
    11:00 +20°C° 0 mm 8 m/s 723 mmHg 27%
    12:00 +21°C° 0 mm 7 m/s 723 mmHg 25%
    13:00 +22°C° 0 mm 7 m/s 722 mmHg 23%
    14:00 +22°C° 0 mm 7 m/s 722 mmHg 22%
    15:00 +23°C° 0 mm 7 m/s 722 mmHg 20%
    16:00 +22°C° 0 mm 6 m/s 722 mmHg 21%
    17:00 +21°C° 0 mm 5 m/s 722 mmHg 21%
    18:00 +21°C° 0 mm 4 m/s 722 mmHg 22%
    19:00 +20°C° 0 mm 3 m/s 722 mmHg 24%
    20:00 +19°C° 0 mm 3 m/s 723 mmHg 26%
    21:00 +18°C° 0 mm 2 m/s 723 mmHg 27%
    22:00 +18°C° 0 mm 2 m/s 723 mmHg 29%
    23:00 +17°C° 0 mm 2 m/s 723 mmHg 30%

    Mâine, 21 Septembrie, Vineri

    Timp Temperatura Precipitaţii Vânt Presiune Umiditate
    00:00 +17°C° 0 mm 2 m/s 723 mmHg 32%
    01:00 +17°C° 0 mm 2 m/s 723 mmHg 33%
    02:00 +17°C° 0 mm 2 m/s 723 mmHg 34%
    03:00 +16°C° 0 mm 2 m/s 722 mmHg 35%
    04:00 +16°C° 0 mm 3 m/s 723 mmHg 36%
    05:00 +16°C° 0 mm 3 m/s 723 mmHg 37%
    06:00 +14°C° 0 mm 3 m/s 724 mmHg 38%
    07:00 +14°C° 0.4 mm 3 m/s 724 mmHg 43%
    08:00 +14°C° 0.4 mm 4 m/s 725 mmHg 48%
    09:00 +14°C° 0.4 mm 5 m/s 725 mmHg 52%
    10:00 +14°C° 0.2 mm 5 m/s 725 mmHg 52%
    11:00 +15°C° 0.2 mm 4 m/s 725 mmHg 53%
    12:00 +15°C° 0.2 mm 4 m/s 725 mmHg 53%
    13:00 +17°C° 0.1 mm 4 m/s 724 mmHg 50%
    14:00 +17°C° 0.1 mm 5 m/s 724 mmHg 48%
    15:00 +17°C° 0.1 mm 5 m/s 723 mmHg 45%
    16:00 +17°C° 0 mm 5 m/s 723 mmHg 45%
    17:00 +17°C° 0 mm 5 m/s 723 mmHg 46%
    18:00 +17°C° 0 mm 5 m/s 723 mmHg 46%
    19:00 +17°C° 0 mm 4 m/s 723 mmHg 48%
    20:00 +15°C° 0 mm 4 m/s 724 mmHg 51%
    21:00 +14°C° 0 mm 3 m/s 724 mmHg 54%
    22:00 +13°C° 0 mm 3 m/s 724 mmHg 55%
    23:00 +13°C° 0 mm 3 m/s 724 mmHg 57%

    Poimâine, 22 Septembrie, Sâmbătă

    Timp Temperatura Precipitaţii Vânt Presiune Umiditate
    00:00 +13°C° 0 mm 2 m/s 724 mmHg 58%
    01:00 +13°C° 0 mm 2 m/s 724 mmHg 58%
    02:00 +12°C° 0 mm 3 m/s 723 mmHg 58%
    03:00 +11°C° 0 mm 3 m/s 723 mmHg 58%
    04:00 +11°C° 0 mm 3 m/s 723 mmHg 58%
    05:00 +11°C° 0 mm 3 m/s 723 mmHg 57%
    06:00 +11°C° 0 mm 4 m/s 724 mmHg 56%
    07:00 +14°C° 0 mm 5 m/s 724 mmHg 47%
    08:00 +17°C° 0 mm 5 m/s 725 mmHg 38%
    09:00 +20°C° 0 mm 6 m/s 725 mmHg 30%
    10:00 +22°C° 0 mm 6 m/s 725 mmHg 27%
    11:00 +24°C° 0 mm 6 m/s 725 mmHg 24%
    12:00 +27°C° 0 mm 5 m/s 724 mmHg 21%
    13:00 +27°C° 0 mm 5 m/s 724 mmHg 20%
    14:00 +28°C° 0 mm 4 m/s 723 mmHg 20%
    15:00 +29°C° 0 mm 4 m/s 722 mmHg 19%
    16:00 +28°C° 0 mm 3 m/s 722 mmHg 20%
    17:00 +27°C° 0 mm 3 m/s 722 mmHg 21%
    18:00 +26°C° 0 mm 3 m/s 723 mmHg 21%
    19:00 +25°C° 0 mm 3 m/s 723 mmHg 22%
    20:00 +23°C° 0 mm 4 m/s 723 mmHg 23%
    21:00 +22°C° 0 mm 5 m/s 724 mmHg 24%
    22:00 +21°C° 0 mm 5 m/s 724 mmHg 24%
    23:00 +20°C° 0 mm 5 m/s 724 mmHg 24%

    23 Septembrie, Duminică

    Timp Temperatura Precipitaţii Vânt Presiune Umiditate
    00:00 +20°C° 0 mm 6 m/s 724 mmHg 24%
    01:00 +19°C° 0 mm 6 m/s 723 mmHg 24%
    02:00 +17°C° 0 mm 5 m/s 723 mmHg 24%
    03:00 +17°C° 0 mm 5 m/s 723 mmHg 24%
    04:00 +16°C° 0 mm 5 m/s 723 mmHg 24%
    05:00 +16°C° 0 mm 5 m/s 723 mmHg 25%
    06:00 +15°C° 0 mm 5 m/s 724 mmHg 25%
    07:00 +19°C° 0 mm 5 m/s 724 mmHg 22%
    08:00 +21°C° 0 mm 6 m/s 724 mmHg 18%
    09:00 +23°C° 0 mm 7 m/s 725 mmHg 15%
    10:00 +26°C° 0 mm 7 m/s 724 mmHg 14%
    11:00 +28°C° 0 mm 6 m/s 724 mmHg 13%
    12:00 +29°C° 0 mm 5 m/s 724 mmHg 12%
    13:00 +30°C° 0 mm 4 m/s 723 mmHg 13%
    14:00 +30°C° 0 mm 3 m/s 722 mmHg 13%
    15:00 +30°C° 0 mm 2 m/s 721 mmHg 13%
    16:00 +29°C° 0 mm 2 m/s 721 mmHg 14%
    17:00 +29°C° 0 mm 2 m/s 722 mmHg 15%
    18:00 +28°C° 0 mm 2 m/s 722 mmHg 16%
    19:00 +27°C° 0 mm 3 m/s 722 mmHg 16%
    20:00 +25°C° 0 mm 3 m/s 722 mmHg 17%
    21:00 +23°C° 0 mm 4 m/s 723 mmHg 18%
    22:00 +22°C° 0 mm 4 m/s 723 mmHg 18%
    23:00 +21°C° 0 mm 4 m/s 722 mmHg 19%

    24 Septembrie, Luni

    Timp Temperatura Precipitaţii Vânt Presiune Umiditate
    00:00 +20°C° 0 mm 4 m/s 722 mmHg 19%
    01:00 +20°C° 0 mm 4 m/s 722 mmHg 20%
    02:00 +19°C° 0 mm 4 m/s 722 mmHg 21%
    03:00 +18°C° 0 mm 4 m/s 721 mmHg 21%
    04:00 +18°C° 0 mm 4 m/s 722 mmHg 22%
    05:00 +17°C° 0 mm 4 m/s 722 mmHg 22%
    06:00 +17°C° 0 mm 4 m/s 722 mmHg 22%
    07:00 +19°C° 0 mm 5 m/s 722 mmHg 20%
    08:00 +22°C° 0 mm 6 m/s 723 mmHg 17%
    09:00 +26°C° 0 mm 7 m/s 723 mmHg 14%
    10:00 +27°C° 0 mm 6 m/s 723 mmHg 13%
    11:00 +29°C° 0 mm 6 m/s 722 mmHg 13%
    12:00 +30°C° 0 mm 5 m/s 722 mmHg 12%
    13:00 +32°C° 0 mm 4 m/s 721 mmHg 12%
    14:00 +32°C° 0 mm 4 m/s 721 mmHg 11%
    15:00 +32°C° 0 mm 4 m/s 720 mmHg 11%
    16:00 +30°C° 0 mm 4 m/s 720 mmHg 12%
    17:00 +29°C° 0 mm 4 m/s 720 mmHg 13%
    18:00 +28°C° 0 mm 4 m/s 720 mmHg 13%
    19:00 +27°C° 0 mm 4 m/s 721 mmHg 14%
    20:00 +26°C° 0 mm 4 m/s 721 mmHg 16%
    21:00 +23°C° 0 mm 4 m/s 721 mmHg 17%
    22:00 +22°C° 0 mm 5 m/s 721 mmHg 18%
    23:00 +22°C° 0 mm 5 m/s 721 mmHg 19%

    25 Septembrie, Marţi

    Timp Temperatura Precipitaţii Vânt Presiune Umiditate
    00:00 +21°C° 0 mm 5 m/s 721 mmHg 21%
    01:00 +20°C° 0 mm 5 m/s 720 mmHg 22%
    02:00 +20°C° 0 mm 5 m/s 720 mmHg 23%
    03:00 +19°C° 0 mm 5 m/s 720 mmHg 25%
    04:00 +19°C° 0 mm 5 m/s 720 mmHg 26%
    05:00 +17°C° 0 mm 5 m/s 720 mmHg 27%
    06:00 +17°C° 0 mm 5 m/s 720 mmHg 28%
    07:00 +20°C° 0 mm 6 m/s 721 mmHg 25%
    08:00 +22°C° 0 mm 7 m/s 721 mmHg 22%
    09:00 +26°C° 0 mm 8 m/s 722 mmHg 19%
    10:00 +27°C° 0 mm 6 m/s 721 mmHg 17%
    11:00 +29°C° 0 mm 5 m/s 721 mmHg 15%
    12:00 +32°C° 0 mm 4 m/s 720 mmHg 13%
    13:00 +32°C° 0 mm 4 m/s 719 mmHg 12%
    14:00 +33°C° 0 mm 3 m/s 719 mmHg 12%
    15:00 +32°C° 0 mm 2 m/s 718 mmHg 11%
    16:00 +31°C° 0 mm 2 m/s 718 mmHg 12%
    17:00 +30°C° 0 mm 2 m/s 718 mmHg 13%
    18:00 +29°C° 0 mm 2 m/s 718 mmHg 14%
    19:00 +28°C° 0 mm 3 m/s 718 mmHg 15%
    20:00 +27°C° 0 mm 4 m/s 719 mmHg 15%
    21:00 +26°C° 0 mm 4 m/s 719 mmHg 16%
    22:00 +25°C° 0 mm 5 m/s 719 mmHg 17%
    23:00 +23°C° 0 mm 5 m/s 718 mmHg 18%
    Arată mai mult